Location: Artiguedieu
(43.5000°N, 0.5454°E)
Time: 18:23:13
(UTC+00:00)

Transit 2A Rocket - Pass Details

Date: 03 August 2021
Orbit: 586 x 916 km, 66.7° (Epoch: 21 September)

Event Time Altitude Azimuth Distance (km) Brightness Sun altitude
Rises 12:23:40 0° 173° (S) 2,823 8.3 63.5°
Reaches altitude 10° 12:26:17 10° 157° (SSE) 1,954 7.6 63.4°
Maximum altitude 12:29:34 21° 108° (ESE) 1,419 6.7 63.3°
Drops below altitude 10° 12:33:01 10° 59° (ENE) 2,073 7.2 63.1°
Sets 12:35:52 0° 44° (NE) 3,051 7.9 63.0°
